Weather History for Brisbane Airport M. O, Queensland

Change the Weather History Date:

Tuesday, August 27, 2013

  Actual Average Record
Temperature  
Mean Temperature 63 °F -  
Max Temperature 75 °F 75 °F - ()
Min Temperature 51 °F 54 °F - ()
Degree Days  
Heating Degree Days 2    
Growing Degree Days 13 (Base 50)    
Moisture  
Dew Point 56 °F    
Average Humidity 80    
Maximum Humidity 100    
Minimum Humidity 43    
Precipitation  
Precipitation 0.00 in 0.05 in - ()
Sea Level Pressure  
Sea Level Pressure 30.15 in    
Wind  
Wind Speed 5 mph ()    
Max Wind Speed 17 mph    
Max Gust Speed -    
Visibility 7.4 miles    
Events Fog    
T = Trace of Precipitation, MM = Missing Value Source: Averaged Metar Reports

Daily Weather History Graph

Daily Weather History Graph

Search for Another Location

Airport:

Trip Planner

Search our weather history database for the weather conditions in past years. The results will help you decide how hot, cold, wet, or windy it might be!

Date:

Astronomy

Aug. 27, 2013 Rise Set
Actual Time 6:06 AM AEST 5:31 PM AEST
Civil Twilight 5:42 AM AEST 5:55 PM AEST
Nautical Twilight 5:15 AM AEST 6:22 PM AEST
Astronomical Twilight 4:48 AM AEST 6:49 PM AEST
Moon 11:34 PM AEST (8/27) 9:53 AM AEST (8/27)
Length of Visible Light 12h 12m
Length of Day
11h 25m
Waning Gibbous, 63% of the Moon is Illuminated
Aug 27
Waning Gibbous
Aug 28
Last Quarter
Sep 5
New
Sep 13
First Quarter
Sep 19
Full

Hourly Weather History & Observations

Time (AEST) Temp. Dew Point Humidity Pressure Visibility Wind Dir Wind Speed Gust Speed Precip Events Conditions
12:00 AM 58 °F 57 °F 95% 30.21 in 12 mi West 3.5 mph - - Fog Patches of Fog
12:00 AM 59.0 °F 57.2 °F 94% 30.18 in 6.2 mi West 3.5 mph - N/A Fog Shallow Fog
12:30 AM 57.2 °F 57.2 °F 100% 30.18 in 6.2 mi Calm Calm - N/A Fog Shallow Fog
1:00 AM 56 °F 55 °F 95% 30.20 in - Calm Calm - -  
1:00 AM 55.4 °F 55.4 °F 100% 30.18 in 6.2 mi Calm Calm - N/A Fog Shallow Fog
1:20 AM 55.4 °F 55.4 °F 100% 30.18 in 6.2 mi Calm Calm - N/A Fog Patches of Fog
1:30 AM 55.4 °F 55.4 °F 100% 30.18 in 6.2 mi Calm Calm - N/A Fog Patches of Fog
2:00 AM 55.4 °F 55.4 °F 100% 30.18 in 5.6 mi SW 2.3 mph - N/A Fog Patches of Fog
2:30 AM 53.6 °F 53.6 °F 100% 30.15 in 5.0 mi SSW 1.2 mph - N/A Fog Patches of Fog
3:00 AM 54 °F 53 °F 95% 30.16 in 6 mi Calm Calm - - Fog Patches of Fog
3:00 AM 53.6 °F 53.6 °F 100% 30.15 in 5.6 mi Calm Calm - N/A Fog Fog
3:16 AM 53.6 °F 53.6 °F 100% 30.15 in 5.6 mi Calm Calm - N/A Fog Patches of Fog
3:30 AM 53.6 °F 53.6 °F 100% 30.15 in 5.6 mi Calm Calm - N/A Fog Patches of Fog
3:40 AM 51.8 °F 51.8 °F 100% 30.15 in 5.6 mi WSW 3.5 mph - N/A Fog Fog
4:00 AM 52 °F 51 °F 96% 30.19 in - SW 5.8 mph - -  
4:00 AM 51.8 °F 51.8 °F 100% 30.18 in 6.2 mi SW 5.8 mph - N/A Fog Shallow Fog
4:30 AM 53.6 °F 51.8 °F 94% 30.18 in - SW 6.9 mph - N/A   Clear
4:46 AM 53.6 °F 53.6 °F 100% 30.18 in 6.2 mi SSW 5.8 mph - N/A Fog Shallow Fog
5:00 AM 55.4 °F 53.6 °F 94% 30.18 in 6.2 mi SSW 5.8 mph - N/A Fog Shallow Fog
5:30 AM 55.4 °F 53.6 °F 94% 30.18 in 6.2 mi SSW 5.8 mph - N/A   Partly Cloudy
5:44 AM 53.6 °F 51.8 °F 94% 30.18 in 6.2 mi SSW 4.6 mph - N/A Fog Shallow Fog
6:00 AM 53.6 °F 53.6 °F 100% 30.18 in 6.2 mi SSW 4.6 mph - N/A Fog Shallow Fog
6:30 AM 51.8 °F 51.8 °F 100% 30.18 in - WSW 2.3 mph - N/A   Clear
7:00 AM 56 °F 54 °F 91% 30.22 in - WSW 6.9 mph - -  
7:00 AM 55.4 °F 53.6 °F 94% 30.21 in - WSW 6.9 mph - N/A   Clear
7:30 AM 59.0 °F 55.4 °F 88% 30.21 in - SW 6.9 mph - N/A   Clear
8:00 AM 60.8 °F 57.2 °F 88% 30.21 in - SW 5.8 mph - N/A   Clear
8:30 AM 64.4 °F 57.2 °F 77% 30.21 in - SSW 8.1 mph - N/A   Clear
9:00 AM 67 °F 57 °F 61% 30.22 in 12 mi WSW 5.8 mph - -   Haze
9:00 AM 66.2 °F 57.2 °F 73% 30.21 in - WSW 5.8 mph - N/A   Clear
9:30 AM 69.8 °F 55.4 °F 60% 30.18 in 6.2 mi NNW 6.9 mph - N/A   Partly Cloudy
10:00 AM 71 °F 54 °F 44% 30.20 in - NNW 8.1 mph - -  
10:00 AM 71.6 °F 53.6 °F 53% 30.18 in 6.2 mi NNW 8.1 mph - N/A   Partly Cloudy
10:30 AM 73.4 °F 53.6 °F 50% 30.18 in 6.2 mi North 9.2 mph - N/A   Partly Cloudy
11:00 AM 73.4 °F 51.8 °F 47% 30.15 in 6.2 mi North 10.4 mph - N/A   Partly Cloudy
11:30 AM 71.6 °F 55.4 °F 57% 30.15 in 6.2 mi NNE 9.2 mph - N/A   Partly Cloudy
12:00 PM 75.2 °F 57.2 °F 53% 30.12 in 6.2 mi NNE 11.5 mph - N/A   Partly Cloudy
12:30 PM 73.4 °F 55.4 °F 53% 30.12 in 6.2 mi NNE 11.5 mph - N/A   Partly Cloudy
1:00 PM 74 °F 56 °F 43% 30.12 in - NNE 11.5 mph - -  
1:00 PM 75.2 °F 55.4 °F 50% 30.09 in 6.2 mi NNE 11.5 mph - N/A   Partly Cloudy
1:30 PM 73.4 °F 57.2 °F 57% 30.09 in 6.2 mi NNE 17.3 mph - N/A   Partly Cloudy
2:00 PM 73.4 °F 55.4 °F 53% 30.06 in 6.2 mi NNE 15.0 mph - N/A   Partly Cloudy
2:30 PM 71.6 °F 55.4 °F 57% 30.06 in 6.2 mi NNE 17.3 mph - N/A   Partly Cloudy
3:00 PM 71 °F 58 °F 53% 30.08 in 19 mi NNE 15.0 mph - -   Haze
3:00 PM 71.6 °F 57.2 °F 60% 30.06 in 6.2 mi NNE 15.0 mph - N/A   Partly Cloudy
3:30 PM 71.6 °F 57.2 °F 60% 30.06 in 6.2 mi NNE 16.1 mph - N/A   Partly Cloudy
4:00 PM 69.8 °F 57.2 °F 64% 30.06 in 6.2 mi NNE 15.0 mph - N/A   Partly Cloudy
4:30 PM 69.8 °F 57.2 °F 64% 30.06 in - North 13.8 mph - N/A   Clear
5:00 PM 68.0 °F 57.2 °F 68% 30.06 in - North 13.8 mph - N/A   Clear
5:30 PM 66.2 °F 59.0 °F 78% 30.09 in - North 12.7 mph - N/A   Clear
6:00 PM 66 °F 60 °F 74% 30.11 in 19 mi North 12.7 mph - -   Haze
6:00 PM 66.2 °F 59.0 °F 78% 30.09 in - North 12.7 mph - N/A   Clear
6:30 PM 66.2 °F 60.8 °F 83% 30.09 in - North 10.4 mph - N/A   Clear
7:00 PM 65 °F 60 °F 79% 30.13 in - North 9.2 mph - -  
7:00 PM 64.4 °F 60.8 °F 88% 30.12 in - North 9.2 mph - N/A   Clear
7:30 PM 64.4 °F 60.8 °F 88% 30.12 in - North 9.2 mph - N/A   Clear
8:00 PM 64.4 °F 60.8 °F 88% 30.12 in - North 10.4 mph - N/A   Clear
8:30 PM 64.4 °F 59.0 °F 83% 30.12 in - North 9.2 mph - N/A   Clear
9:00 PM 65 °F 60 °F 77% 30.15 in 19 mi NNW 8.1 mph - -   Partly Cloudy
9:00 PM 64.4 °F 59.0 °F 83% 30.12 in - NNW 8.1 mph - N/A   Clear
9:30 PM 62.6 °F 59.0 °F 88% 30.12 in - NNW 5.8 mph - N/A   Clear
10:00 PM 61 °F 57 °F 82% 30.15 in - North 9.2 mph - -  
10:00 PM 60.8 °F 57.2 °F 88% 30.12 in - North 9.2 mph - N/A   Clear
10:30 PM 60.8 °F 57.2 °F 88% 30.12 in - North 8.1 mph - N/A   Clear
11:00 PM 60.8 °F 57.2 °F 88% 30.12 in - North 9.2 mph - N/A   Clear
11:30 PM 60.8 °F 57.2 °F 88% 30.15 in - North 5.8 mph - N/A   Clear